Time,TemperatureF,DewpointF,PressureIn,WindDirection,WindDirectionDegrees,WindSpeedMPH,WindSpeedGustMPH,Humidity,HourlyPrecipIn,Conditions,Clouds,dailyrainin,SoftwareType,DateUTC
2013-07-08 00:00:00,76.0,66.0,30.03,West,262,3.0,10.0,71,0.00,,,-99.99,,2013-07-08 04:00:00,
2013-07-08 00:33:00,76.0,66.0,30.03,West,262,3.0,10.0,71,0.00,,,-99.99,,2013-07-08 04:33:00,
2013-07-08 00:42:00,76.0,66.0,30.03,West,262,3.0,10.0,71,0.00,,,-99.99,,2013-07-08 04:42:00,
2013-07-08 00:53:00,76.0,66.0,30.03,West,262,3.0,10.0,71,0.00,,,-99.99,,2013-07-08 04:53:00,
2013-07-08 01:00:00,74.0,66.0,30.03,WSW,237,4.0,8.0,76,0.00,,,-99.99,,2013-07-08 05:00:00,
2013-07-08 01:34:00,74.0,66.0,30.03,WSW,237,4.0,8.0,76,0.00,,,-99.99,,2013-07-08 05:34:00,
2013-07-08 01:43:00,74.0,66.0,30.03,WSW,237,4.0,8.0,76,0.00,,,-99.99,,2013-07-08 05:43:00,
2013-07-08 01:53:00,74.0,66.0,30.03,WSW,237,4.0,8.0,76,0.00,,,-99.99,,2013-07-08 05:53:00,
2013-07-08 02:00:00,72.0,66.0,30.03,South,176,1.0,7.0,81,0.00,,,-99.99,,2013-07-08 06:00:00,
2013-07-08 02:34:00,72.0,66.0,30.03,South,176,1.0,7.0,81,0.00,,,-99.99,,2013-07-08 06:34:00,
2013-07-08 02:43:00,72.0,66.0,30.03,South,176,1.0,7.0,81,0.00,,,-99.99,,2013-07-08 06:43:00,
2013-07-08 02:53:00,72.0,66.0,30.03,South,176,1.0,7.0,81,0.00,,,-99.99,,2013-07-08 06:53:00,
2013-07-08 03:00:00,72.0,67.0,30.03,SW,229,3.0,8.0,85,0.00,,,-99.99,,2013-07-08 07:00:00,
2013-07-08 03:34:00,72.0,67.0,30.03,SW,229,3.0,8.0,85,0.00,,,-99.99,,2013-07-08 07:34:00,
2013-07-08 03:44:00,72.0,67.0,30.03,SW,229,3.0,8.0,85,0.00,,,-99.99,,2013-07-08 07:44:00,
2013-07-08 03:53:00,72.0,67.0,30.03,SW,229,3.0,8.0,85,0.00,,,-99.99,,2013-07-08 07:53:00,
2013-07-08 04:00:00,71.0,67.0,30.03,SW,221,5.0,7.0,88,0.00,,,-99.99,,2013-07-08 08:00:00,
2013-07-08 04:34:00,71.0,67.0,30.03,SW,221,5.0,7.0,88,0.00,,,-99.99,,2013-07-08 08:34:00,
2013-07-08 04:42:00,71.0,67.0,30.03,SW,221,5.0,7.0,88,0.00,,,-99.99,,2013-07-08 08:42:00,
2013-07-08 04:53:00,71.0,67.0,30.03,SW,221,5.0,7.0,88,0.00,,,-99.99,,2013-07-08 08:53:00,
2013-07-08 05:00:00,70.0,67.0,30.03,West,261,5.0,7.0,90,0.00,,,-99.99,,2013-07-08 09:00:00,
2013-07-08 05:34:00,70.0,67.0,30.03,West,261,5.0,7.0,90,0.00,,,-99.99,,2013-07-08 09:34:00,
2013-07-08 05:43:00,70.0,67.0,30.03,West,261,5.0,7.0,90,0.00,,,-99.99,,2013-07-08 09:43:00,
2013-07-08 05:53:00,70.0,67.0,30.03,West,261,5.0,7.0,90,0.00,,,-99.99,,2013-07-08 09:53:00,
2013-07-08 06:00:00,70.0,67.0,30.06,WSW,238,2.0,8.0,90,0.00,,,-99.99,,2013-07-08 10:00:00,
2013-07-08 06:34:00,70.0,67.0,30.06,WSW,238,2.0,8.0,90,0.00,,,-99.99,,2013-07-08 10:34:00,
2013-07-08 06:43:00,70.0,67.0,30.06,WSW,238,2.0,8.0,90,0.00,,,-99.99,,2013-07-08 10:43:00,
2013-07-08 06:53:00,70.0,67.0,30.06,WSW,238,2.0,8.0,90,0.00,,,-99.99,,2013-07-08 10:53:00,
2013-07-08 07:00:00,74.0,68.0,30.06,WSW,253,8.0,8.0,82,0.00,,,-99.99,,2013-07-08 11:00:00,
2013-07-08 07:33:00,74.0,68.0,30.06,WSW,253,8.0,8.0,82,0.00,,,-99.99,,2013-07-08 11:33:00,
2013-07-08 07:43:00,74.0,68.0,30.06,WSW,253,8.0,8.0,82,0.00,,,-99.99,,2013-07-08 11:43:00,
2013-07-08 07:53:00,74.0,68.0,30.06,WSW,253,8.0,8.0,82,0.00,,,-99.99,,2013-07-08 11:53:00,
2013-07-08 08:00:00,76.0,68.0,30.06,WSW,250,8.0,9.0,77,0.00,,,-99.99,,2013-07-08 12:00:00,
2013-07-08 08:34:00,76.0,68.0,30.06,WSW,250,8.0,9.0,77,0.00,,,-99.99,,2013-07-08 12:34:00,
2013-07-08 08:43:00,76.0,68.0,30.06,WSW,250,8.0,9.0,77,0.00,,,-99.99,,2013-07-08 12:43:00,
2013-07-08 08:53:00,76.0,68.0,30.06,WSW,250,8.0,9.0,77,0.00,,,-99.99,,2013-07-08 12:53:00,
2013-07-08 09:00:00,77.0,68.0,30.06,SW,214,7.0,10.0,75,0.00,,,-99.99,,2013-07-08 13:00:00,
2013-07-08 09:43:00,77.0,68.0,30.06,SW,214,7.0,10.0,75,0.00,,,-99.99,,2013-07-08 13:43:00,
2013-07-08 09:53:00,77.0,68.0,30.06,SW,214,7.0,10.0,75,0.00,,,-99.99,,2013-07-08 13:53:00,
2013-07-08 10:00:00,80.0,69.0,30.06,WSW,240,4.0,12.0,68,0.00,,,-99.99,,2013-07-08 14:00:00,
2013-07-08 10:34:00,80.0,69.0,30.06,WSW,240,4.0,12.0,68,0.00,,,-99.99,,2013-07-08 14:34:00,
2013-07-08 10:43:00,80.0,69.0,30.06,WSW,240,4.0,12.0,68,0.00,,,-99.99,,2013-07-08 14:43:00,
2013-07-08 10:53:00,80.0,69.0,30.06,WSW,240,4.0,12.0,68,0.00,,,-99.99,,2013-07-08 14:53:00,
2013-07-08 11:00:00,80.0,69.0,30.06,SW,227,9.0,12.0,68,0.00,,,-99.99,,2013-07-08 15:00:00,
2013-07-08 11:43:00,80.0,69.0,30.06,SW,227,9.0,12.0,68,0.00,,,-99.99,,2013-07-08 15:43:00,
2013-07-08 11:53:00,80.0,69.0,30.06,SW,227,9.0,12.0,68,0.00,,,-99.99,,2013-07-08 15:53:00,
2013-07-08 12:00:00,84.0,68.0,30.06,WNW,287,6.0,13.0,59,0.00,,,-99.99,,2013-07-08 16:00:00,
2013-07-08 12:34:00,84.0,68.0,30.06,WNW,287,6.0,13.0,59,0.00,,,-99.99,,2013-07-08 16:34:00,
2013-07-08 12:43:00,84.0,68.0,30.06,WNW,287,6.0,13.0,59,0.00,,,-99.99,,2013-07-08 16:43:00,
2013-07-08 12:58:00,84.0,68.0,30.06,WNW,287,6.0,13.0,59,0.00,,,-99.99,,2013-07-08 16:58:00,
2013-07-08 16:00:00,86.0,68.0,30.00,SW,222,8.0,17.0,55,0.00,,,-99.99,,2013-07-08 20:00:00,
2013-07-08 16:57:00,86.0,68.0,30.00,SW,222,8.0,17.0,55,0.00,,,-99.99,,2013-07-08 20:57:00,
2013-07-08 17:47:00,82.0,68.0,30.00,NNW,345,3.0,14.0,62,0.00,,,-99.99,,2013-07-08 21:47:00,
2013-07-08 17:58:00,82.0,68.0,30.00,NNW,345,3.0,14.0,62,0.00,,,-99.99,,2013-07-08 21:58:00,
2013-07-08 18:00:00,73.0,69.0,30.00,SW,230,8.0,14.0,85,0.01,,,-99.99,,2013-07-08 22:00:00,
2013-07-08 18:50:00,73.0,69.0,30.00,SW,230,8.0,14.0,85,0.01,,,-99.99,,2013-07-08 22:50:00,
2013-07-08 19:00:00,73.0,66.0,30.03,WSW,251,3.0,12.0,81,0.00,,,-99.99,,2013-07-08 23:00:00,
2013-07-08 20:00:00,72.0,67.0,30.03,South,190,3.0,7.0,82,0.00,,,-99.99,,2013-07-09 00:00:00,
2013-07-08 20:46:00,72.0,67.0,30.03,South,190,3.0,7.0,82,0.00,,,-99.99,,2013-07-09 00:46:00,
2013-07-08 21:00:00,70.0,66.0,30.06,South,186,4.0,5.0,90,0.00,,,-99.99,,2013-07-09 01:00:00,
2013-07-08 21:48:00,70.0,66.0,30.06,South,186,4.0,5.0,90,0.00,,,-99.99,,2013-07-09 01:48:00,
2013-07-08 22:00:00,70.0,68.0,30.09,SW,221,5.0,7.0,91,0.00,,,-99.99,,2013-07-09 02:00:00,
2013-07-08 22:51:00,70.0,68.0,30.09,SW,221,5.0,7.0,91,0.00,,,-99.99,,2013-07-09 02:51:00,
2013-07-08 23:00:00,70.0,68.0,30.09,West,265,3.0,7.0,92,0.00,,,-99.99,,2013-07-09 03:00:00,
2013-07-08 23:49:00,70.0,68.0,30.09,West,265,3.0,7.0,92,0.00,,,-99.99,,2013-07-09 03:49:00,